SM2GSR-2 Weather Reports


time (UTC)temp
C
wind
direction
speed
KPH
gust
KPH
rain 1hr
cm
rain 24hr
cm
rain mn
cm
humidity
%
barometer
mb
20260506020004 -1 243 0.0 0.0 0.00 0.00 0.00 81 998.9
20260506015004 -1 274 0.0 0.0 0.00 0.00 0.00 81 998.9
20260506014503 -1 219 0.0 0.0 0.00 0.00 0.00 81 998.9
20260506014003 -1 212 0.0 0.0 0.00 0.00 0.00 81 998.8
20260506013503 -1 272 0.0 0.0 0.00 0.00 0.00 80 998.8
20260506013003 -1 268 0.0 0.0 0.00 0.00 0.00 80 998.8
20260506012504 -1 268 0.0 0.0 0.00 0.00 0.00 81 998.7
20260506012003 -1 268 0.0 0.0 0.00 0.00 0.00 81 998.7
20260506011503 -1 268 0.0 0.0 0.00 0.00 0.00 80 998.7
20260506011003 -1 268 0.0 0.0 0.00 0.00 0.00 80 998.7
20260506010003 -1 231 0.0 0.0 0.00 0.00 0.00 80 998.7
20260506005503 -1 246 0.0 0.0 0.00 0.00 0.00 80 998.6
20260506005003 -1 246 0.0 0.0 0.00 0.00 0.00 79 998.6
20260506004503 -1 246 0.0 0.0 0.00 0.00 0.00 79 998.6
20260506003503 -1 237 0.0 0.0 0.00 0.00 0.00 79 998.6
20260506003003 -1 237 0.0 0.0 0.00 0.00 0.00 79 998.6
20260506002504 -1 263 0.0 0.0 0.00 0.00 0.00 79 998.5
20260506002003 -1 263 0.0 0.0 0.00 0.00 0.00 79 998.5
20260506001504 -1 262 0.0 0.0 0.00 0.00 0.00 79 998.5
20260506001003 -1 263 0.0 0.0 0.00 0.00 0.00 80 998.5
20260506000503 -1 263 0.0 0.0 0.00 0.00 0.00 80 998.5
20260506000004 -1 260 0.0 0.0 0.00 0.00 0.00 81 998.5
20260505235504 -2 244 0.0 0.0 0.00 0.00 0.00 81 998.5
20260505234504 -2 232 0.0 0.0 0.00 0.00 0.00 79 998.5
20260505233507 -1 232 0.0 0.0 0.00 0.00 0.00 78 998.6
20260505233005 -1 232 0.0 0.0 0.00 0.00 0.00 79 998.6
20260505232504 -1 232 0.0 0.0 0.00 0.00 0.00 78 998.6
20260505232004 -1 232 0.0 0.0 0.00 0.00 0.00 78 998.6
20260505231503 -1 260 0.0 0.0 0.00 0.00 0.00 77 998.6
20260505231003 -1 260 0.0 0.0 0.00 0.00 0.00 76 998.6
20260505230503 -1 260 0.0 0.0 0.00 0.00 0.00 75 998.6
20260505225504 -1 259 0.0 0.0 0.00 0.00 0.00 73 998.5
20260505225004 0 259 0.0 0.0 0.00 0.00 0.00 73 998.6
20260505224504 0 259 0.0 0.0 0.00 0.00 0.00 73 998.6
20260505223503 0 252 0.0 0.0 0.00 0.00 0.00 73 998.6
20260505223003 0 250 0.0 0.0 0.00 0.00 0.00 73 998.6
20260505222503 0 273 0.0 0.0 0.00 0.00 0.00 73 998.6
20260505222003 0 272 0.0 0.0 0.00 0.00 0.00 73 998.5
20260505221003 0 277 4.8 12.9 0.00 0.00 0.00 73 998.5
20260505220504 0 258 0.0 0.0 0.00 0.00 0.00 73 998.4
20260505220003 0 275 0.0 0.0 0.00 0.00 0.00 72 998.4
20260505215503 0 279 0.0 0.0 0.00 0.00 0.00 71 998.4
20260505215003 0 279 0.0 0.0 0.00 0.00 0.00 71 998.4
20260505214503 0 279 0.0 0.0 0.00 0.00 0.00 70 998.4
20260505214003 0 279 0.0 0.0 0.00 0.00 0.00 70 998.4
20260505213503 0 279 0.0 11.3 0.00 0.00 0.00 70 998.3
20260505212503 0 277 8.0 14.5 0.00 0.00 0.00 70 998.3
20260505212003 0 295 3.2 11.3 0.00 0.00 0.00 70 998.2
20260505211504 0 284 4.8 12.9 0.00 0.00 0.00 69 998.2
20260505211003 0 276 3.2 9.7 0.00 0.00 0.00 69 998.2
20260505210503 0 250 1.6 4.8 0.00 0.00 0.00 68 998.1
20260505210003 0 296 0.0 0.0 0.00 0.00 0.00 68 998.1
20260505205503 0 239 0.0 0.0 0.00 0.00 0.00 68 998.1
20260505205003 0 274 0.0 0.0 0.00 0.00 0.00 68 998.0
20260505204003 0 266 0.0 0.0 0.00 0.00 0.00 68 998.0
20260505203503 0 248 0.0 0.0 0.00 0.00 0.00 68 998.0
20260505203004 0 255 0.0 0.0 0.00 0.00 0.00 69 998.0
20260505202503 0 276 0.0 0.0 0.00 0.00 0.00 69 998.0
20260505201503 0 242 0.0 0.0 0.00 0.00 0.00 70 997.9
20260505201003 0 242 0.0 0.0 0.00 0.00 0.00 69 997.8
20260505200503 0 242 0.0 0.0 0.00 0.00 0.00 68 997.8
20260505195504 1 242 0.0 0.0 0.00 0.00 0.00 66 997.8
20260505195003 1 242 0.0 0.0 0.00 0.00 0.00 66 997.8
20260505194503 1 241 0.0 0.0 0.00 0.00 0.00 66 997.8
20260505194004 1 240 0.0 0.0 0.00 0.00 0.00 66 997.7
20260505193503 1 244 0.0 0.0 0.00 0.00 0.00 66 997.6
20260505193003 1 263 0.0 0.0 0.00 0.00 0.00 65 997.6
20260505192503 1 270 0.0 0.0 0.00 0.00 0.00 63 997.6
20260505192003 1 270 0.0 0.0 0.00 0.00 0.00 61 997.6
20260505191003 2 270 0.0 0.0 0.00 0.00 0.00 60 997.5
20260505190503 2 289 0.0 0.0 0.00 0.00 0.00 59 997.5
20260505190004 2 282 0.0 0.0 0.00 0.00 0.00 59 997.4
20260505185503 2 279 0.0 0.0 0.00 0.00 0.00 58 997.4
20260505185004 2 269 0.0 8.0 0.00 0.00 0.00 58 997.3
20260505184504 2 262 6.4 16.1 0.00 0.00 0.00 57 997.3
20260505184003 2 289 9.7 19.3 0.00 0.00 0.00 57 997.3
20260505183504 2 273 11.3 19.3 0.00 0.00 0.00 57 997.2
20260505183004 3 285 1.6 19.3 0.00 0.00 0.00 56 997.2
20260505182504 3 277 1.6 16.1 0.00 0.00 0.00 56 997.2
20260505182003 3 307 8.0 16.1 0.00 0.00 0.00 56 997.2
20260505181003 3 290 4.8 19.3 0.00 0.00 0.00 57 997.1
20260505180503 3 303 8.0 20.9 0.00 0.00 0.00 56 997.1
20260505180004 3 272 8.0 11.3 0.00 0.00 0.00 57 997.0
20260505175504 3 312 9.7 27.4 0.00 0.00 0.00 59 997.1
20260505175004 3 290 8.0 16.1 0.00 0.00 0.00 58 997.1
20260505174503 3 288 4.8 19.3 0.00 0.00 0.00 57 997.1
20260505174003 3 273 9.7 19.3 0.00 0.00 0.00 56 997.0
20260505173503 3 279 8.0 19.3 0.00 0.00 0.00 54 996.9
20260505173003 3 270 14.5 24.1 0.00 0.00 0.00 52 996.8
20260505172503 4 276 8.0 19.3 0.00 0.00 0.00 51 996.8
20260505172003 4 276 11.3 25.7 0.00 0.00 0.00 50 996.7
20260505171504 4 268 9.7 19.3 0.00 0.00 0.00 49 996.7
20260505171003 4 250 4.8 16.1 0.00 0.00 0.00 49 996.7
20260505170506 4 289 6.4 16.1 0.00 0.00 0.00 48 996.6
20260505170003 4 264 8.0 19.3 0.00 0.00 0.00 48 996.6
20260505165503 4 299 9.7 22.5 0.00 0.00 0.00 47 996.7
20260505164504 5 308 8.0 11.3 0.00 0.00 0.00 45 996.5
20260505164004 5 309 8.0 14.5 0.00 0.00 0.00 43 996.4
20260505163003 5 274 0.0 8.0 0.00 0.00 0.00 44 996.3
20260505162503 5 289 8.0 12.9 0.00 0.00 0.00 45 996.4
20260505162003 5 292 0.0 0.0 0.00 0.00 0.00 45 996.4
20260505161504 5 264 4.8 19.3 0.00 0.00 0.00 45 996.4
20260505161003 5 317 11.3 24.1 0.00 0.00 0.00 44 996.5
20260505153003 5 308 9.7 16.1 0.00 0.00 0.00 41 996.2
20260505152504 5 299 11.3 24.1 0.00 0.00 0.00 40 996.1
20260505152003 5 299 3.2 12.9 0.00 0.00 0.00 41 996.1
20260505151503 5 306 16.1 29.0 0.00 0.00 0.00 41 996.1
20260505151003 5 290 9.7 19.3 0.00 0.00 0.00 42 996.1
20260505140503 5 280 4.8 12.9 0.00 0.00 0.00 48 995.9
20260505125004 7 302 19.3 32.2 0.00 0.00 0.00 35 994.9
20260505124503 7 253 12.9 22.5 0.00 0.00 0.00 36 994.8
20260505124004 7 297 12.9 29.0 0.00 0.00 0.00 36 994.8
20260505123503 7 308 9.7 25.7 0.00 0.00 0.00 35 994.9
20260505123003 7 301 11.3 19.3 0.00 0.00 0.00 36 994.8
20260505122003 6 310 9.7 20.9 0.00 0.00 0.00 38 994.8
20260505121503 7 301 16.1 25.7 0.00 0.00 0.00 37 994.8
20260505121003 7 264 9.7 24.1 0.00 0.00 0.00 38 994.7
20260505120503 6 292 11.3 24.1 0.00 0.00 0.00 38 994.6
20260505120003 7 284 14.5 22.5 0.00 0.00 0.00 36 994.7
20260505115503 7 326 11.3 19.3 0.00 0.00 0.00 37 994.6
20260505115003 7 271 11.3 32.2 0.00 0.00 0.00 36 994.6
20260505114503 7 303 19.3 33.8 0.00 0.00 0.00 37 994.6
20260505114003 7 326 11.3 24.1 0.00 0.00 0.00 35 994.6
20260505113503 7 311 9.7 22.5 0.00 0.00 0.00 37 994.5
20260505113003 6 311 14.5 27.4 0.00 0.00 0.00 37 994.5
20260505112503 6 297 9.7 19.3 0.00 0.00 0.00 39 994.5
20260505112004 6 332 16.1 27.4 0.00 0.00 0.00 40 994.5
20260505111503 6 318 16.1 25.7 0.00 0.00 0.00 41 994.4
20260505110504 7 312 14.5 25.7 0.00 0.00 0.00 37 994.4
20260505102003 6 303 12.9 22.5 0.00 0.10 0.00 41 994.1
20260505101504 6 298 16.1 29.0 0.00 0.10 0.00 39 994.1
20260505101003 6 292 11.3 25.7 0.00 0.10 0.00 39 994.0
20260505100503 6 314 11.3 24.1 0.00 0.10 0.00 41 993.9
20260505100004 6 304 14.5 20.9 0.00 0.10 0.00 40 993.8
20260505095503 6 283 9.7 22.5 0.00 0.10 0.00 42 993.8
20260505094504 6 314 14.5 25.7 0.00 0.10 0.00 42 993.7
20260505094003 6 308 11.3 20.9 0.00 0.10 0.00 43 993.8
20260505093504 6 314 16.1 22.5 0.00 0.10 0.00 42 993.8
20260505093004 6 320 8.0 19.3 0.00 0.10 0.00 44 993.8
20260505092503 6 338 14.5 25.7 0.00 0.10 0.00 40 993.7
20260505092005 6 311 11.3 20.9 0.00 0.10 0.00 42 993.6
20260505091004 6 304 19.3 29.0 0.00 0.10 0.00 41 993.6
20260505090504 6 292 16.1 38.6 0.00 0.10 0.00 41 993.6
20260505085503 6 283 9.7 22.5 0.00 0.10 0.00 43 993.5
20260505085004 6 309 9.7 20.9 0.00 0.10 0.00 44 993.5
20260505084503 5 259 11.3 19.3 0.00 0.10 0.00 45 993.4
20260505084004 6 337 9.7 24.1 0.00 0.10 0.00 44 993.5
20260505083503 5 336 16.1 25.7 0.00 0.10 0.00 44 993.4
20260505082003 5 293 16.1 27.4 0.00 0.10 0.00 46 993.3
20260505081504 5 318 9.7 24.1 0.00 0.10 0.00 46 993.2
20260505080503 5 286 14.5 20.9 0.00 0.10 0.00 47 993.2
20260505080003 5 325 14.5 27.4 0.00 0.10 0.00 45 993.1
20260505075504 5 305 9.7 19.3 0.00 0.10 0.00 46 993.2
20260505075004 5 316 4.8 19.3 0.00 0.10 0.00 47 993.2
20260505074504 5 329 11.3 24.1 0.00 0.10 0.00 47 993.1
20260505074004 5 316 11.3 24.1 0.00 0.10 0.00 49 993.1
20260505073503 5 311 14.5 32.2 0.00 0.10 0.00 50 993.1
20260505073003 4 289 16.1 25.7 0.00 0.10 0.00 50 993.0
20260505072503 4 314 16.1 27.4 0.00 0.10 0.00 50 992.9
20260505072003 4 312 14.5 24.1 0.00 0.10 0.00 50 992.9
20260505071504 3 302 14.5 32.2 0.00 0.10 0.00 50 993.0
20260505071003 3 303 14.5 25.7 0.00 0.10 0.00 50 993.0
20260505070503 4 305 17.7 32.2 0.00 0.10 0.00 50 992.9
20260505070004 3 267 11.3 20.9 0.00 0.10 0.00 53 992.9
20260505065503 3 320 14.5 24.1 0.00 0.10 0.00 51 992.9
20260505065004 3 290 16.1 27.4 0.00 0.10 0.00 53 993.0
20260505064503 3 312 16.1 27.4 0.00 0.10 0.00 53 993.0
20260505064003 3 314 11.3 25.7 0.00 0.10 0.00 54 992.9
20260505063504 3 298 19.3 29.0 0.00 0.10 0.00 55 992.9
20260505063003 3 288 14.5 29.0 0.00 0.10 0.00 55 992.7
20260505062503 3 303 11.3 24.1 0.00 0.10 0.00 57 992.7
20260505062004 3 277 16.1 27.4 0.00 0.10 0.00 57 992.7
20260505061503 3 315 16.1 24.1 0.00 0.10 0.00 57 992.7
20260505061003 3 302 14.5 22.5 0.00 0.10 0.00 58 992.7
20260505060504 2 297 9.7 20.9 0.00 0.10 0.00 59 992.7
20260505060004 2 308 14.5 24.1 0.00 0.10 0.00 59 992.7
20260505055504 2 296 14.5 32.2 0.00 0.13 0.00 59 992.6
20260505054503 2 304 11.3 25.7 0.00 0.13 0.00 61 992.6
20260505054003 2 288 11.3 25.7 0.00 0.13 0.00 62 992.6
20260505053503 2 285 14.5 24.1 0.00 0.15 0.00 62 992.6
20260505053004 2 295 16.1 32.2 0.00 0.15 0.00 63 992.5
20260505052503 2 312 14.5 20.9 0.00 0.15 0.00 63 992.6
20260505051503 1 290 14.5 19.3 0.00 0.18 0.00 65 992.6
20260505051003 1 298 12.9 19.3 0.00 0.18 0.00 65 992.6
20260505050503 1 299 9.7 16.1 0.00 0.18 0.00 66 992.5
20260505041503 1 307 12.9 20.9 0.00 0.18 0.00 68 992.3
20260505041003 1 287 9.7 22.5 0.00 0.18 0.00 68 992.3
20260505040503 1 290 9.7 19.3 0.00 0.18 0.00 68 992.3
20260505040004 1 308 11.3 25.7 0.00 0.18 0.00 68 992.2
20260505035503 1 305 12.9 19.3 0.00 0.18 0.00 69 992.2
20260505035003 1 283 11.3 24.1 0.00 0.18 0.00 69 992.1
20260505034503 1 289 12.9 20.9 0.00 0.18 0.00 69 992.1
20260505033503 0 296 6.4 14.5 0.00 0.18 0.00 70 992.1
20260505033003 0 327 0.0 12.9 0.00 0.18 0.00 72 992.1
20260505032503 0 292 9.7 19.3 0.00 0.18 0.00 73 992.1
20260505032004 0 288 4.8 14.5 0.00 0.18 0.00 74 992.1
20260505031503 0 272 3.2 16.1 0.00 0.18 0.00 75 992.1
20260505031003 0 296 8.0 12.9 0.00 0.18 0.00 75 992.1
20260505030004 0 288 8.0 12.9 0.00 0.18 0.00 76 992.1
20260505025504 0 292 8.0 14.5 0.00 0.18 0.00 76 992.1
20260505025003 0 310 8.0 12.9 0.00 0.18 0.00 77 992.1
20260505024503 0 296 6.4 12.9 0.00 0.18 0.00 77 992.2
20260505024003 0 274 8.0 9.7 0.00 0.18 0.00 78 992.1
20260505023503 0 267 8.0 19.3 0.00 0.18 0.00 78 992.1
20260505023004 -1 293 8.0 16.1 0.00 0.18 0.00 78 992.1
20260505022503 -1 292 6.4 16.1 0.00 0.18 0.00 78 992.0
20260505022003 -1 288 6.4 14.5 0.00 0.18 0.00 78 992.0
20260505021004 -1 281 1.6 9.7 0.00 0.18 0.00 79 991.9
20260505020503 -1 284 6.4 11.3 0.00 0.18 0.00 78 991.9